Regional Weather Roundup
Issued by NWS Albany, NY

Home | Current Version | Previous Version | Graphics & Text | Print | Product List | Glossary On
Versions: 1 2 3 4 5 6 7 8 9 10 11 12 13 14 15 16 17 18 19 20 21 22 23 24 25 26 27 28 29 30 31 32 33 34 35 36 37 38 39 40 41 42 43 44 45 46 47 48 49 50
000
ASUS41 KALY 201110
RWRALY

NEW YORK STATE HOURLY WEATHER ROUNDUP
NATIONAL WEATHER SERVICE ALBANY NY
700 AM EDT WED AUG 20 2014

NOTE: "FAIR" INDICATES FEW OR NO CLOUDS BELOW 12,000 FEET WITH NO
SIGNIFICANT WEATHER AND/OR NO OBSTRUCTIONS TO VISIBILITY.

NYZ032-033-038>043-046>054-057>066-NYZ062>081-201200-
EAST


CITY           SKY/WX    TMP DP  RH WIND       PRES   REMARKS
ALBANY         MOCLDY    60  56  86 VRB3      29.99R
GLENS FALLS    CLOUDY    56  52  86 E3        29.99R
POUGHKEEPSIE   CLOUDY    64  61  90 CALM      29.97R
NEWBURGH       CLOUDY    66  64  94 CALM      29.99R
MONTGOMERY     CLOUDY    62  59  90 CALM      29.98R
WHITE PLAINS   MOCLDY    67  65  93 CALM      29.98R
ISLIP          PTCLDY    64  62  93 N3        29.97R
NEW YORK CITY  MOCLDY    72  64  76 CALM      29.97R
CENTRAL PARK   CLOUDY    72  64  76 CALM      30.00R
$$

NYZ005>009-017-018-044>046-055-056-201200-
CENTRAL


CITY           SKY/WX    TMP DP  RH WIND       PRES   REMARKS
FULTON         MOCLDY    63  58  83 CALM      29.90R
SYRACUSE       MOCLDY    63  59  87 E5        29.90R
ROME           CLEAR     60  55  83 SE6       29.95R
ELMIRA         CLOUDY    63  63 100 CALM      29.93R FOG
BINGHAMTON     CLOUDY    65  62  90 S6        29.96S
MONTICELLO     CLOUDY    59  57  94 CALM      30.02R
$$

NYZ026>034-041>043-201200-
NORTH


CITY           SKY/WX    TMP DP  RH WIND       PRES   REMARKS
WATERTOWN      CLEAR     60  54  80 E3        29.90R
FORT DRUM      NOT AVBL
MASSENA        CLEAR     54  53  97 CALM      29.94S
SARANAC LAKE   CLEAR     47  46  97 CALM      29.98R
PLATTSBURGH    CLEAR     51  50  96 CALM      29.97R
$$

NYZ001>004-010>016-019>021-201200-
WEST


CITY           SKY/WX    TMP DP  RH WIND       PRES   REMARKS
NIAGARA FALLS  LGT RAIN  68  63  84 S5        29.87R
BUFFALO        CLOUDY    68  61  78 CALM      29.88R
DUNKIRK        CLOUDY    67  63  87 VRB5      29.87R
JAMESTOWN      CLOUDY    63  61  94 S7        29.92R
WELLSVILLE     MOCLDY    66  64  93 S3        29.96R
ROCHESTER      CLOUDY    63  61  93 CALM      29.88R
PENN YAN       PTCLDY    66  64  93 SW3       29.91R FOG
$$

             KEY
       WCI = WIND CHILL INDEX
       VSB = VISIBILITY
       HX  = HEAT INDEX
$$


USA.gov is the U.S. government's official web portal to all federal, state and local government web resources and services.